Regional Weather Roundup
Issued by NWS

Home | Current Version | Previous Version | Graphics & Text | Print | Product List | Glossary On
Versions: 1 2 3 4 5 6 7 8 9 10 11 12 13 14 15 16 17 18 19 20 21 22 23 24 25 26 27 28 29 30 31 32 33 34 35 36 37 38 39 40 41 42 43 44 45 46 47 48 49 50
000
ASUS43 KOAX 202302
RWRNE

WEATHER ROUNDUP FOR NEBRASKA
NATIONAL WEATHER SERVICE OMAHA NE
600 PM CDT MON APR 20 2015

NOTES: SATELLITE DATA IS BEING USED TO AUGMENT CLOUD COVER ABOVE
       12000 FEET.
       "FAIR" INDICATES FEW OR NO CLOUDS BELOW 12,000 FEET WITH NO
       SIGNIFICANT WEATHER AND/OR OBSTRUCTIONS TO VISIBILITY.

  * THESE STATIONS DO NOT REPORT WEATHER SUCH AS RAIN...SNOW OR FOG.

NEZ001>004-019>022-054>056-210000-
NEBRASKA PANHANDLE

CITY           SKY/WX    TMP DP  RH WIND       PRES   REMARKS
SCOTTSBLUFF    MOSUNNY   57  23  26 NW17G26   29.86F
ALLIANCE       MOSUNNY   53  22  29 NW21G26   29.84F
CHADRON        MOSUNNY   56  22  26 NW24G33   29.84F
SIDNEY         MOSUNNY   53  25  33 NW23      29.88S
$$

NEZ057>060-069>072-079>082-210000-
SOUTHWEST NEBRASKA

CITY           SKY/WX    TMP DP  RH WIND       PRES   REMARKS
NORTH PLATTE   CLOUDY    56  24  29 NW21      29.85F
IMPERIAL       PTSUNNY   55  24  30 W17G29    29.86F
MCCOOK         CLOUDY    58  23  26 NW16      29.86F
$$

NEZ005>010-023>029-035>040-094-210000-
NORTH CENTRAL NEBRASKA

CITY           SKY/WX    TMP DP  RH WIND       PRES   REMARKS
VALENTINE      PTSUNNY   53  19  26 NW18G31   29.82S
AINSWORTH      CLOUDY    51  20  29 NW20G29   29.82S
BROKEN BOW     CLOUDY    57  22  25 NW20G25   29.83S
ORD            PTSUNNY   54  23  30 NW21G33   29.80F
$$

NEZ041-046>049-061>064-073>077-083>087-210000-
SOUTH CENTRAL NEBRASKA

CITY           SKY/WX    TMP DP  RH WIND       PRES   REMARKS
GRAND ISLAND   MOSUNNY   57  22  25 NW26G32   29.82F
HASTINGS       PTSUNNY   56  25  30 NW21      29.83S
KEARNEY *      PTSUNNY   57  21  24 NW18G28   29.84S
YORK           MOSUNNY   57  23  26 NW25G32   29.81S
$$

NEZ011>018-030>034-042>045-210000-
NORTHEAST NEBRASKA

CITY           SKY/WX    TMP DP  RH WIND       PRES   REMARKS
NORFOLK        PTSUNNY   55  16  21 NW25G36   29.75S
COLUMBUS *     MOSUNNY   55  19  24 NW23G33   29.80R
TEKAMAH        MOSUNNY   57  19  22 NW25G38   29.74R
$$

NEZ050>053-065>068-078-088>093-210000-
SOUTHEAST NEBRASKA

CITY           SKY/WX    TMP DP  RH WIND       PRES   REMARKS
LINCOLN        PTSUNNY   58  18  21 NW23G33   29.80S
OMAHA EPPLEY   MOSUNNY   57  18  21 NW25G32   29.74S
FALLS CITY     CLOUDY    58  24  27 W21G26    29.80S
NEBRASKA CITY  PTSUNNY   58  12  16 NW18G29   29.79S
PLATTSMOUTH    PTSUNNY   56  13  18 NW21G30   29.77S
$$

NEZ044-045-051>053-067-210000-
OMAHA AREA

CITY           SKY/WX    TMP DP  RH WIND       PRES   REMARKS
OMAHA EPPLEY   MOSUNNY   57  18  21 NW25G32   29.74S
OFFUTT AFB     MOSUNNY   58  21  24 W17G29    29.75R
PLATTSMOUTH    PTSUNNY   56  13  18 NW21G30   29.77S
$$



USA.gov is the U.S. government's official web portal to all federal, state and local government web resources and services.